Météo Nord-Pas-de-Calais   La météo au plus près de chez vous

Station météorologique

Observations météo à Toulouse-Blagnac (31069)

31069001 151 m Dernier relevé à 16:12
29.8°C
Humidité 37 % Vent 14.4 km/h 1018.7 hPa

Journée consultée

Mardi 1 Septembre 2026

Synthèse de la journée

Périodes de référence en UTC

Température maximale

29.8°C

à 16:12

06h 06h

Température minimale

15.9°C

à 07:42

18h 18h

Rafale maximale

30 km/h

à 14:06

00h 00h

Précipitations

0 mm

Cumul quotidien

06h 06h

Ensoleillement

8h 33 mins

Durée quotidienne

00h 00h

Graphiques de la journée

Heure locale Réduire

Données détaillées

Relevés météo

Pas de 6 minutes Afficher les relevés infra-horaires
Relevés météo détaillés à Toulouse-Blagnac pour le Mardi 1 Septembre 2026
Heure Température °C Point de rosée °C Humidité % Vent moyen (raf.), km/h Précipitations mm Température à 10 cm °C Température à 20 cm °C Température à 50 cm °C Température à 100 cm °C Visibilité m État du sol   Hauteur neige cm Ensoleillement min Rayonnement global W/m² Pression hPa
16:12 29.8 °C 13.1 °C 36 % 11 km/h (25 km/h) 0 mm0 mm 26.7 °C 25.1 °C 24.4 °C 23.2 °C 60000 m 0   0 cm 6 min 242.3 W/m² 1018.4 hPa
16:06 29.6 °C 12.9 °C 36 % 13 km/h (25 km/h) 0 mm0 mm 26.6 °C 25.1 °C 24.4 °C 23.2 °C 60000 m 0   0 cm 6 min 246.4 W/m² 1018.5 hPa
16:00 29.7 °C 13 °C 36 % 13 km/h (26 km/h) 0 mm0 mm 26.5 °C 25 °C 24.4 °C 23.2 °C 60000 m 0   0 cm 6 min 251.2 W/m² 1018.4 hPa
15:54 29.6 °C 12.9 °C 36 % 13 km/h (26 km/h) 0 mm0 mm 26.5 °C 25 °C 24.4 °C 23.2 °C 60000 m 0   0 cm 6 min 254.2 W/m² 1018.5 hPa
15:48 29.4 °C 12.8 °C 36 % 10 km/h (24 km/h) 0 mm0 mm 26.4 °C 25 °C 24.4 °C 23.2 °C 60000 m 0   0 cm 6 min 257.5 W/m² 1018.6 hPa
15:42 29.3 °C 12.7 °C 36 % 10 km/h (26 km/h) 0 mm0 mm 26.4 °C 24.9 °C 24.4 °C 23.2 °C 60000 m 0   0 cm 6 min 261.5 W/m² 1018.6 hPa
15:36 29.1 °C 12.5 °C 36 % 12 km/h (22 km/h) 0 mm0 mm 26.3 °C 24.9 °C 24.5 °C 23.2 °C 60000 m 0   0 cm 6 min 264.4 W/m² 1018.6 hPa
15:30 29.2 °C 12.6 °C 36 % 11 km/h (22 km/h) 0 mm0 mm 26.2 °C 24.9 °C 24.4 °C 23.2 °C 60000 m 0   0 cm 6 min 267.1 W/m² 1018.6 hPa
15:24 29.1 °C 12.9 °C 37 % 10 km/h (26 km/h) 0 mm0 mm 26.1 °C 24.8 °C 24.4 °C 23.2 °C 60000 m 0   0 cm 6 min 270.2 W/m² 1018.6 hPa
15:18 29.1 °C 12.9 °C 37 % 17 km/h (26 km/h) 0 mm0 mm 26 °C 24.8 °C 24.4 °C 23.2 °C 60000 m 0   0 cm 6 min 272.5 W/m² 1018.6 hPa
15:12 28.8 °C 12.7 °C 37 % 14 km/h (27 km/h) 0 mm0 mm 26 °C 24.8 °C 24.4 °C 23.2 °C 35850 m 0   0 cm 6 min 276 W/m² 1018.7 hPa
15:06 28.9 °C 12.7 °C 37 % 10 km/h (27 km/h) 0 mm0 mm 25.9 °C 24.8 °C 24.5 °C 23.2 °C 35850 m 0   0 cm 6 min 278.5 W/m² 1018.7 hPa
15:00 29.2 °C 12.6 °C 36 % 11 km/h (22 km/h) 0 mm0 mm 25.9 °C 24.7 °C 24.5 °C 23.2 °C 60000 m 0   0 cm 6 min 279.5 W/m² 1018.9 hPa
14:54 29 °C 12 °C 35 % 13 km/h (22 km/h) 0 mm0 mm 25.8 °C 24.7 °C 24.5 °C 23.2 °C 42540 m 0   0 cm 6 min 282.9 W/m² 1018.9 hPa
14:48 28.9 °C 12.3 °C 36 % 10 km/h (22 km/h) 0 mm0 mm 25.7 °C 24.6 °C 24.4 °C 23.2 °C 42540 m 0   0 cm 6 min 283.7 W/m² 1018.9 hPa
14:42 28.8 °C 12.2 °C 36 % 11 km/h (20 km/h) 0 mm0 mm 25.6 °C 24.7 °C 24.5 °C 23.2 °C 59850 m 0   0 cm 6 min 285.2 W/m² 1018.9 hPa
14:36 29.2 °C 12.6 °C 36 % 9 km/h (20 km/h) 0 mm0 mm 25.5 °C 24.6 °C 24.5 °C 23.2 °C 24450 m 0   0 cm 6 min 284.3 W/m² 1018.9 hPa
14:30 28.8 °C 12.2 °C 36 % 8 km/h (16 km/h) 0 mm0 mm 25.5 °C 24.6 °C 24.4 °C 23.2 °C 32430 m 0   0 cm 6 min 289.3 W/m² 1019 hPa
14:24 28.5 °C 12 °C 36 % 6 km/h (17 km/h) 0 mm0 mm 25.4 °C 24.6 °C 24.5 °C 23.2 °C 15710 m 0   0 cm 6 min 290.9 W/m² 1019.2 hPa
14:18 28.3 °C 12.6 °C 38 % 8 km/h (18 km/h) 0 mm0 mm 25.3 °C 24.5 °C 24.4 °C 23.2 °C 5730 m 0   0 cm 6 min 291.4 W/m² 1019.2 hPa
14:12 28.3 °C 12.2 °C 37 % 11 km/h (30 km/h) 0 mm0 mm 25.2 °C 24.5 °C 24.5 °C 23.3 °C 19900 m 0   0 cm 6 min 291.7 W/m² 1019.4 hPa
14:06 28.4 °C 12.7 °C 38 % 8 km/h (30 km/h) 0 mm0 mm 25.2 °C 24.5 °C 24.5 °C 23.2 °C 19900 m 0   0 cm 6 min 291.8 W/m² 1019.4 hPa
14:00 27.9 °C 12.3 °C 38 % 10 km/h (22 km/h) 0 mm0 mm 25.1 °C 24.5 °C 24.5 °C 23.2 °C 60000 m 0   0 cm 6 min 292.9 W/m² 1019.6 hPa
13:54 28 °C 12.4 °C 38 % 10 km/h (20 km/h) 0 mm0 mm 25 °C 24.4 °C 24.5 °C 23.2 °C 60000 m 0   0 cm 6 min 292.5 W/m² 1019.6 hPa
13:48 27.9 °C 12.7 °C 39 % 8 km/h (20 km/h) 0 mm0 mm 25 °C 24.4 °C 24.5 °C 23.2 °C 60000 m 0   0 cm 6 min 292.1 W/m² 1019.7 hPa
13:42 27.7 °C 12.5 °C 39 % 8 km/h (15 km/h) 0 mm0 mm 24.9 °C 24.4 °C 24.5 °C 23.2 °C 60000 m 0   0 cm 6 min 291.7 W/m² 1019.8 hPa
13:36 27.7 °C 12.5 °C 39 % 8 km/h (15 km/h) 0 mm0 mm 24.9 °C 24.4 °C 24.5 °C 23.2 °C 60000 m 0   0 cm 6 min 290.5 W/m² 1019.9 hPa
13:30 27.5 °C 12.3 °C 39 % 11 km/h (21 km/h) 0 mm0 mm 24.8 °C 24.3 °C 24.5 °C 23.2 °C 19880 m 0   0 cm 6 min 289.7 W/m² 1019.9 hPa
13:24 27.7 °C 12.5 °C 39 % 13 km/h (24 km/h) 0 mm0 mm 24.7 °C 24.3 °C 24.5 °C 23.2 °C 17880 m 0   0 cm 6 min 288.8 W/m² 1019.9 hPa
13:18 27.6 °C 12.8 °C 40 % 9 km/h (18 km/h) 0 mm0 mm 24.6 °C 24.3 °C 24.5 °C 23.2 °C 17970 m 0   0 cm 6 min 286.8 W/m² 1019.9 hPa
13:12 27.3 °C 12.5 °C 40 % 7 km/h (18 km/h) 0 mm0 mm 24.6 °C 24.3 °C 24.5 °C 23.2 °C 60000 m 0   0 cm 6 min 285.1 W/m² 1020 hPa
13:06 27.2 °C 12.8 °C 41 % 7 km/h (14 km/h) 0 mm0 mm 24.5 °C 24.3 °C 24.5 °C 23.2 °C 18670 m 0   0 cm 6 min 283.9 W/m² 1020 hPa
13:00 27.1 °C 12.7 °C 41 % 10 km/h (21 km/h) 0 mm0 mm 24.4 °C 24.3 °C 24.5 °C 23.2 °C 18670 m 0   0 cm 6 min 281.7 W/m² 1020 hPa
12:54 26.7 °C 12.7 °C 42 % 10 km/h (21 km/h) 0 mm0 mm 24.4 °C 24.3 °C 24.5 °C 23.2 °C 60000 m 0   0 cm 6 min 279.2 W/m² 1020.2 hPa
12:48 27.3 °C 13.3 °C 42 % 8 km/h (18 km/h) 0 mm0 mm 24.3 °C 24.3 °C 24.5 °C 23.2 °C 60000 m 0   0 cm 6 min 276.7 W/m² 1020.2 hPa
12:42 27.1 °C 13.1 °C 42 % 7 km/h (15 km/h) 0 mm0 mm 24.2 °C 24.3 °C 24.5 °C 23.2 °C 60000 m 0   0 cm 6 min 273.5 W/m² 1020.3 hPa
12:36 27 °C 13 °C 42 % 8 km/h (15 km/h) 0 mm0 mm 24.2 °C 24.3 °C 24.5 °C 23.2 °C 60000 m 0   0 cm 6 min 271.1 W/m² 1020.4 hPa
12:30 26.7 °C 12.4 °C 41 % 11 km/h (20 km/h) 0 mm0 mm 24.1 °C 24.2 °C 24.5 °C 23.2 °C 60000 m 0   0 cm 6 min 268.1 W/m² 1020.5 hPa
12:24 26.8 °C 12.8 °C 42 % 9 km/h (19 km/h) 0 mm0 mm 24.1 °C 24.2 °C 24.5 °C 23.2 °C 19910 m 0   0 cm 6 min 264.9 W/m² 1020.6 hPa
12:18 26.3 °C 13.1 °C 44 % 10 km/h (17 km/h) 0 mm0 mm 24 °C 24.2 °C 24.5 °C 23.2 °C 19910 m 0   0 cm 6 min 260.9 W/m² 1020.7 hPa
12:12 26.1 °C 12.9 °C 44 % 8 km/h (15 km/h) 0 mm0 mm 24 °C 24.2 °C 24.5 °C 23.2 °C 60000 m 0   0 cm 6 min 257.5 W/m² 1020.8 hPa
12:06 25.9 °C 13.1 °C 45 % 10 km/h (21 km/h) 0 mm0 mm 24 °C 24.2 °C 24.5 °C 23.2 °C 60000 m 0   0 cm 6 min 254.7 W/m² 1020.9 hPa
12:00 26.1 °C 13.2 °C 45 % 10 km/h (21 km/h) 0 mm0 mm 23.9 °C 24.2 °C 24.5 °C 23.2 °C 60000 m 0   0 cm 6 min 250.7 W/m² 1020.9 hPa
11:54 25.4 °C 12.9 °C 46 % 11 km/h (22 km/h) 0 mm0 mm 23.9 °C 24.2 °C 24.6 °C 23.2 °C 60000 m 0   0 cm 6 min 247.1 W/m² 1021 hPa
11:48 25.4 °C 12.9 °C 46 % 12 km/h (22 km/h) 0 mm0 mm 23.8 °C 24.2 °C 24.5 °C 23.2 °C 60000 m 0   0 cm 6 min 243.5 W/m² 1021 hPa
11:42 25.4 °C 12.9 °C 46 % 11 km/h (22 km/h) 0 mm0 mm 23.8 °C 24.2 °C 24.5 °C 23.2 °C 60000 m 0   0 cm 6 min 238.7 W/m² 1021 hPa
11:36 25.1 °C 13 °C 47 % 10 km/h (20 km/h) 0 mm0 mm 23.8 °C 24.2 °C 24.5 °C 23.2 °C 60000 m 0   0 cm 6 min 235 W/m² 1021.1 hPa
11:30 25.1 °C 13.3 °C 48 % 7 km/h (14 km/h) 0 mm0 mm 23.7 °C 24.2 °C 24.5 °C 23.2 °C 60000 m 0   0 cm 6 min 230.4 W/m² 1021.2 hPa
11:24 25.1 °C 13.6 °C 49 % 6 km/h (13 km/h) 0 mm0 mm 23.7 °C 24.2 °C 24.5 °C 23.2 °C 19720 m 0   0 cm 6 min 225.7 W/m² 1021.2 hPa
11:18 24.6 °C 13.2 °C 49 % 5 km/h (10 km/h) 0 mm0 mm 23.7 °C 24.2 °C 24.5 °C 23.2 °C 19720 m 0   0 cm 6 min 220.5 W/m² 1021.2 hPa
11:12 24.4 °C 13.3 °C 50 % 6 km/h (12 km/h) 0 mm0 mm 23.6 °C 24.2 °C 24.5 °C 23.2 °C 60000 m 0   0 cm 6 min 215.4 W/m² 1021.2 hPa
11:06 23.6 °C 13.5 °C 53 % 6 km/h (13 km/h) 0 mm0 mm 23.6 °C 24.2 °C 24.5 °C 23.2 °C 60000 m 0   0 cm 6 min 210 W/m² 1021.2 hPa
11:00 23.4 °C 13 °C 52 % 4 km/h (8 km/h) 0 mm0 mm 23.6 °C 24.2 °C 24.5 °C 23.2 °C 60000 m 0   0 cm 6 min 204.4 W/m² 1021.3 hPa
10:54 23.6 °C 13.5 °C 53 % 4 km/h (11 km/h) 0 mm0 mm 23.6 °C 24.2 °C 24.5 °C 23.2 °C 60000 m 0   0 cm 6 min 199.2 W/m² 1021.2 hPa
10:48 23.7 °C 13.6 °C 53 % 4 km/h (11 km/h) 0 mm0 mm 23.6 °C 24.3 °C 24.5 °C 23.2 °C 60000 m 0   0 cm 6 min 193.9 W/m² 1021.2 hPa
10:42 23.2 °C 13.4 °C 54 % 4 km/h (10 km/h) 0 mm0 mm 23.6 °C 24.3 °C 24.6 °C 23.2 °C 60000 m 0   0 cm 6 min 188.1 W/m² 1021.3 hPa
10:36 22.8 °C 13.3 °C 55 % 4 km/h (10 km/h) 0 mm0 mm 23.6 °C 24.3 °C 24.6 °C 23.2 °C 60000 m 0   0 cm 6 min 181.9 W/m² 1021.3 hPa
10:30 22.4 °C 13.2 °C 56 % 4 km/h (6 km/h) 0 mm0 mm 23.5 °C 24.3 °C 24.6 °C 23.2 °C 60000 m 0   0 cm 6 min 175.7 W/m² 1021.2 hPa
10:24 22.2 °C 13.3 °C 57 % 4 km/h (7 km/h) 0 mm0 mm 23.5 °C 24.3 °C 24.6 °C 23.2 °C 19960 m 0   0 cm 6 min 169.9 W/m² 1021.1 hPa
10:18 22.2 °C 13.3 °C 57 % 4 km/h (7 km/h) 0 mm0 mm 23.5 °C 24.3 °C 24.6 °C 23.2 °C 17720 m 0   0 cm 6 min 163.8 W/m² 1021.1 hPa
10:12 21.2 °C 13.1 °C 60 % 3 km/h (5 km/h) 0 mm0 mm 23.5 °C 24.3 °C 24.5 °C 23.2 °C 17750 m 0   0 cm 6 min 157.3 W/m² 1021.2 hPa
10:06 21.1 °C 13 °C 60 % 3 km/h (7 km/h) 0 mm0 mm 23.5 °C 24.4 °C 24.6 °C 23.2 °C 60000 m 0   0 cm 6 min 150.7 W/m² 1021.2 hPa
10:00 20.9 °C 13.1 °C 61 % 3 km/h (6 km/h) 0 mm0 mm 23.5 °C 24.4 °C 24.6 °C 23.2 °C 60000 m 0   0 cm 6 min 144 W/m² 1021.3 hPa
09:54 20.8 °C 13.2 °C 62 % 3 km/h (6 km/h) 0 mm0 mm 23.5 °C 24.4 °C 24.6 °C 23.2 °C 60000 m 0   0 cm 6 min 137.7 W/m² 1021.3 hPa
09:48 20.4 °C 13.1 °C 63 % 3 km/h (7 km/h) 0 mm0 mm 23.6 °C 24.4 °C 24.6 °C 23.2 °C 60000 m 0   0 cm 6 min 131.7 W/m² 1021.2 hPa
09:42 20.1 °C 13.1 °C 64 % 4 km/h (7 km/h) 0 mm0 mm 23.5 °C 24.4 °C 24.6 °C 23.2 °C 60000 m 0   0 cm 6 min 126 W/m² 1021.4 hPa
09:36 19.9 °C 12.9 °C 64 % 5 km/h (9 km/h) 0 mm0 mm 23.5 °C 24.4 °C 24.6 °C 23.2 °C 60000 m 0   0 cm 6 min 120.5 W/m² 1021.5 hPa
09:30 19.8 °C 13 °C 65 % 4 km/h (9 km/h) 0 mm0 mm 23.6 °C 24.4 °C 24.6 °C 23.2 °C 60000 m 0   0 cm 6 min 114.9 W/m² 1021.5 hPa
09:24 19.8 °C 13 °C 65 % 4 km/h (8 km/h) 0 mm0 mm 23.6 °C 24.4 °C 24.6 °C 23.2 °C 60000 m 0   0 cm 6 min 109.1 W/m² 1021.5 hPa
09:18 19.5 °C 13 °C 66 % 3 km/h (8 km/h) 0 mm0 mm 23.6 °C 24.4 °C 24.6 °C 23.2 °C 60000 m 0   0 cm 6 min 103.3 W/m² 1021.5 hPa
09:12 19.4 °C 12.9 °C 66 % 3 km/h (5 km/h) 0 mm0 mm 23.6 °C 24.5 °C 24.6 °C 23.2 °C 60000 m 0   0 cm 6 min 97 W/m² 1021.5 hPa
09:06 18.8 °C 12.8 °C 68 % 4 km/h (6 km/h) 0 mm0 mm 23.6 °C 24.5 °C 24.6 °C 23.2 °C 60000 m 0   0 cm 6 min 90.4 W/m² 1021.4 hPa
09:00 18.7 °C 13.1 °C 70 % 5 km/h (9 km/h) 0 mm0 mm 23.6 °C 24.5 °C 24.6 °C 23.2 °C 60000 m 0   0 cm 6 min 83.8 W/m² 1021.5 hPa
08:54 18.4 °C 13 °C 71 % 7 km/h (11 km/h) 0 mm0 mm 23.6 °C 24.5 °C 24.6 °C 23.2 °C 60000 m 0   0 cm 6 min 77 W/m² 1021.6 hPa
08:48 18.2 °C 13.1 °C 72 % 8 km/h (11 km/h) 0 mm0 mm 23.6 °C 24.5 °C 24.6 °C 23.2 °C 60000 m 0   0 cm 6 min 70.3 W/m² 1021.6 hPa
08:42 18 °C 13.1 °C 73 % 8 km/h (10 km/h) 0 mm0 mm 23.7 °C 24.6 °C 24.6 °C 23.2 °C 60000 m 0   0 cm 6 min 63.8 W/m² 1021.8 hPa
08:36 17.8 °C 13.1 °C 74 % 7 km/h (11 km/h) 0 mm0 mm 23.7 °C 24.6 °C 24.6 °C 23.2 °C 60000 m 0   0 cm 6 min 57.1 W/m² 1021.7 hPa
08:30 17.6 °C 12.9 °C 74 % 8 km/h (12 km/h) 0 mm0 mm 23.7 °C 24.6 °C 24.6 °C 23.2 °C 60000 m 0   0 cm 6 min 50.6 W/m² 1021.6 hPa
08:24 17.5 °C 13 °C 75 % 8 km/h (10 km/h) 0 mm0 mm 23.7 °C 24.6 °C 24.6 °C 23.2 °C 59730 m 0   0 cm 6 min 44.5 W/m² 1021.5 hPa
08:18 17.4 °C 13.1 °C 76 % 8 km/h (10 km/h) 0 mm0 mm 23.8 °C 24.6 °C 24.6 °C 23.2 °C 57830 m 0   0 cm 6 min 38.3 W/m² 1021.5 hPa
08:12 17.2 °C 13.1 °C 77 % 7 km/h (10 km/h) 0 mm0 mm 23.8 °C 24.7 °C 24.6 °C 23.2 °C 60000 m 0   0 cm 6 min 32.8 W/m² 1021.5 hPa
08:06 16.6 °C 12.9 °C 79 % 4 km/h (8 km/h) 0 mm0 mm 23.8 °C 24.7 °C 24.6 °C 23.2 °C 60000 m 0   0 cm 6 min 27.5 W/m² 1021.6 hPa
08:00 16.3 °C 13 °C 81 % 3 km/h (6 km/h) 0 mm0 mm 23.9 °C 24.7 °C 24.6 °C 23.2 °C 60000 m 0   0 cm 6 min 22.1 W/m² 1021.6 hPa
07:54 16.1 °C 13 °C 82 % 4 km/h (6 km/h) 0 mm0 mm 23.9 °C 24.7 °C 24.6 °C 23.2 °C 60000 m 0   0 cm 6 min 15.9 W/m² 1021.6 hPa
07:48 16 °C 13.1 °C 83 % 4 km/h (5 km/h) 0 mm0 mm 23.9 °C 24.7 °C 24.6 °C 23.2 °C 60000 m 0   0 cm 6 min 11.5 W/m² 1021.5 hPa
07:42 15.9 °C 12.8 °C 82 % 5 km/h (7 km/h) 0 mm0 mm 23.9 °C 24.7 °C 24.6 °C 23.2 °C 60000 m 0   0 cm 3 min 8.5 W/m² 1021.5 hPa
07:36 16 °C 12.7 °C 81 % 6 km/h (7 km/h) 0 mm0 mm 23.9 °C 24.7 °C 24.6 °C 23.2 °C 60000 m 0   0 cm 0 min 0 W/m² 1021.5 hPa
07:30 16.3 °C 12.6 °C 79 % 5 km/h (8 km/h) 0 mm0 mm 23.9 °C 24.7 °C 24.6 °C 23.2 °C 60000 m 0   0 cm 0 min 0 W/m² 1021.4 hPa
07:24 16.6 °C 12.5 °C 77 % 6 km/h (8 km/h) 0 mm0 mm 24 °C 24.8 °C 24.6 °C 23.2 °C 60000 m 0   0 cm 0 min 0 W/m² 1021.3 hPa
07:18 16.8 °C 12.3 °C 75 % 6 km/h (8 km/h) 0 mm0 mm 24 °C 24.8 °C 24.6 °C 23.2 °C 60000 m 0   0 cm 0 min 0 W/m² 1021.3 hPa
07:12 16.9 °C 12.4 °C 75 % 7 km/h (10 km/h) 0 mm0 mm 24 °C 24.8 °C 24.6 °C 23.2 °C 60000 m 0   0 cm 0 min 0 W/m² 1021.1 hPa
07:06 17 °C 12.5 °C 75 % 8 km/h (10 km/h) 0 mm0 mm 24 °C 24.8 °C 24.6 °C 23.2 °C 60000 m 0   0 cm 0 min 0 W/m² 1021.1 hPa
07:00 17.1 °C 12.6 °C 75 % 6 km/h (9 km/h) 0 mm0 mm 24.1 °C 24.9 °C 24.6 °C 23.2 °C 60000 m 0   0 cm 0 min 0 W/m² 1021.1 hPa
06:54 17.1 °C 12.6 °C 75 % 5 km/h (7 km/h) 0 mm0 mm 24.1 °C 24.9 °C 24.6 °C 23.2 °C 60000 m 0   0 cm 0 min 0 W/m² 1021.1 hPa
06:48 17.1 °C 12.6 °C 75 % 5 km/h (6 km/h) 0 mm0 mm 24.2 °C 24.9 °C 24.6 °C 23.2 °C 60000 m 0   0 cm 0 min 0 W/m² 1021.1 hPa
06:42 17 °C 12.5 °C 75 % 5 km/h (6 km/h) 0 mm0 mm 24.2 °C 24.9 °C 24.6 °C 23.2 °C 60000 m 0   0 cm 0 min 0 W/m² 1021.1 hPa
06:36 17.1 °C 12.6 °C 75 % 4 km/h (6 km/h) 0 mm0 mm 24.2 °C 24.9 °C 24.6 °C 23.2 °C 58520 m 0   0 cm 0 min 0 W/m² 1021.1 hPa
06:30 17 °C 12.5 °C 75 % 4 km/h (6 km/h) 0 mm0 mm 24.2 °C 24.9 °C 24.6 °C 23.2 °C 58520 m 0   0 cm 0 min 0 W/m² 1021 hPa
06:24 17 °C 12.7 °C 76 % 5 km/h (7 km/h) 0 mm0 mm 24.2 °C 24.9 °C 24.6 °C 23.2 °C 60000 m 0   0 cm 0 min 0 W/m² 1021 hPa
06:18 16.9 °C 12.6 °C 76 % 5 km/h (7 km/h) 0 mm0 mm 24.2 °C 24.9 °C 24.6 °C 23.2 °C 60000 m 0   0 cm 0 min 0 W/m² 1021 hPa
06:12 16.9 °C 12.6 °C 76 % 5 km/h (6 km/h) 0 mm0 mm 24.3 °C 25 °C 24.6 °C 23.2 °C 60000 m 0   0 cm 0 min 0 W/m² 1021 hPa
06:06 17 °C 12.5 °C 75 % 5 km/h (6 km/h) 0 mm0 mm 24.3 °C 25 °C 24.6 °C 23.2 °C 60000 m 0   0 cm 0 min 0 W/m² 1021 hPa
06:00 17 °C 12.5 °C 75 % 5 km/h (6 km/h) 0 mm0 mm 24.3 °C 25 °C 24.6 °C 23.2 °C 60000 m 0   0 cm 0 min 0 W/m² 1021 hPa
05:54 17 °C 12.5 °C 75 % 5 km/h (7 km/h) 0 mm0 mm 24.3 °C 25 °C 24.6 °C 23.2 °C 60000 m 0   0 cm 0 min 0 W/m² 1020.9 hPa
05:48 16.9 °C 12.4 °C 75 % 6 km/h (8 km/h) 0 mm0 mm 24.4 °C 25 °C 24.6 °C 23.2 °C 60000 m 0   0 cm 0 min 0 W/m² 1020.9 hPa
05:42 16.9 °C 12.4 °C 75 % 6 km/h (8 km/h) 0 mm0 mm 24.4 °C 25.1 °C 24.6 °C 23.2 °C 60000 m 0   0 cm 0 min 0 W/m² 1021 hPa
05:36 16.9 °C 12.4 °C 75 % 6 km/h (8 km/h) 0 mm0 mm 24.4 °C 25.1 °C 24.6 °C 23.2 °C 60000 m 0   0 cm 0 min 0 W/m² 1021 hPa
05:30 17 °C 12.5 °C 75 % 6 km/h (8 km/h) 0 mm0 mm 24.4 °C 25.1 °C 24.6 °C 23.2 °C 60000 m 0   0 cm 0 min 0 W/m² 1021.1 hPa
05:24 17 °C 12.3 °C 74 % 7 km/h (9 km/h) 0 mm0 mm 24.4 °C 25.1 °C 24.6 °C 23.2 °C 60000 m 0   0 cm 0 min 0 W/m² 1021.1 hPa
05:18 17.2 °C 12.5 °C 74 % 9 km/h (13 km/h) 0 mm0 mm 24.5 °C 25.1 °C 24.6 °C 23.2 °C 60000 m 0   0 cm 0 min 0 W/m² 1021.2 hPa
05:12 17.6 °C 12.7 °C 73 % 12 km/h (14 km/h) 0 mm0 mm 24.5 °C 25.1 °C 24.6 °C 23.2 °C 60000 m 0   0 cm 0 min 0 W/m² 1021.2 hPa
05:06 17.5 °C 12.8 °C 74 % 13 km/h (14 km/h) 0 mm0 mm 24.5 °C 25.1 °C 24.6 °C 23.2 °C 60000 m 0   0 cm 0 min 0 W/m² 1021.2 hPa
05:00 17.3 °C 12.6 °C 74 % 12 km/h (14 km/h) 0 mm0 mm 24.6 °C 25.1 °C 24.6 °C 23.2 °C 60000 m 0   0 cm 0 min 0 W/m² 1021.3 hPa
04:54 17.1 °C 12.4 °C 74 % 10 km/h (13 km/h) 0 mm0 mm 24.6 °C 25.2 °C 24.6 °C 23.2 °C 60000 m 0   0 cm 0 min 0 W/m² 1021.3 hPa
04:48 17.2 °C 12.3 °C 73 % 9 km/h (12 km/h) 0 mm0 mm 24.6 °C 25.2 °C 24.6 °C 23.2 °C 60000 m 0   0 cm 0 min 0 W/m² 1021.3 hPa
04:42 17.3 °C 12.4 °C 73 % 9 km/h (12 km/h) 0 mm0 mm 24.7 °C 25.2 °C 24.6 °C 23.2 °C 60000 m 0   0 cm 0 min 0 W/m² 1021.3 hPa
04:36 17.4 °C 12.3 °C 72 % 9 km/h (12 km/h) 0 mm0 mm 24.7 °C 25.2 °C 24.6 °C 23.2 °C 60000 m 0   0 cm 0 min 0 W/m² 1021.4 hPa
04:30 17.7 °C 12.4 °C 71 % 10 km/h (12 km/h) 0 mm0 mm 24.7 °C 25.2 °C 24.6 °C 23.2 °C 60000 m 0   0 cm 0 min 0 W/m² 1021.4 hPa
04:24 18 °C 12.4 °C 70 % 11 km/h (15 km/h) 0 mm0 mm 24.7 °C 25.3 °C 24.6 °C 23.2 °C 60000 m 0   0 cm 0 min 0 W/m² 1021.5 hPa
04:18 18.3 °C 12.5 °C 69 % 13 km/h (15 km/h) 0 mm0 mm 24.7 °C 25.3 °C 24.6 °C 23.2 °C 60000 m 0   0 cm 0 min 0 W/m² 1021.5 hPa
04:12 18.5 °C 12.7 °C 69 % 13 km/h (15 km/h) 0 mm0 mm 24.8 °C 25.3 °C 24.6 °C 23.2 °C 60000 m 0   0 cm 0 min 0 W/m² 1021.5 hPa
04:06 18.5 °C 12.5 °C 68 % 13 km/h (16 km/h) 0 mm0 mm 24.8 °C 25.3 °C 24.6 °C 23.2 °C 60000 m 0   0 cm 0 min 0 W/m² 1021.5 hPa
04:00 18.6 °C 12.6 °C 68 % 13 km/h (16 km/h) 0 mm0 mm 24.8 °C 25.3 °C 24.6 °C 23.2 °C 60000 m 0   0 cm 0 min 0 W/m² 1021.4 hPa
03:54 18.9 °C 12.6 °C 67 % 13 km/h (16 km/h) 0 mm0 mm 24.8 °C 25.3 °C 24.6 °C 23.2 °C 60000 m 0   0 cm 0 min 0 W/m² 1021.4 hPa
03:48 19.1 °C 12.6 °C 66 % 14 km/h (17 km/h) 0 mm0 mm 24.9 °C 25.3 °C 24.6 °C 23.2 °C 60000 m 0   0 cm 0 min 0 W/m² 1021.4 hPa
03:42 19 °C 12.7 °C 67 % 13 km/h (17 km/h) 0 mm0 mm 24.9 °C 25.4 °C 24.6 °C 23.2 °C 60000 m 0   0 cm 0 min 0 W/m² 1021.5 hPa
03:36 18.9 °C 12.6 °C 67 % 12 km/h (16 km/h) 0 mm0 mm 24.9 °C 25.4 °C 24.6 °C 23.2 °C 60000 m 0   0 cm 0 min 0 W/m² 1021.6 hPa
03:30 18.9 °C 12.6 °C 67 % 11 km/h (15 km/h) 0 mm0 mm 25 °C 25.4 °C 24.6 °C 23.2 °C 60000 m 0   0 cm 0 min 0 W/m² 1021.6 hPa
03:24 19 °C 12.7 °C 67 % 12 km/h (15 km/h) 0 mm0 mm 25 °C 25.4 °C 24.6 °C 23.2 °C 60000 m 0   0 cm 0 min 0 W/m² 1021.7 hPa
03:18 19 °C 12.7 °C 67 % 12 km/h (14 km/h) 0 mm0 mm 25 °C 25.4 °C 24.6 °C 23.2 °C 60000 m 0   0 cm 0 min 0 W/m² 1021.7 hPa
03:12 19.2 °C 12.7 °C 66 % 10 km/h (14 km/h) 0 mm0 mm 25 °C 25.4 °C 24.6 °C 23.2 °C 60000 m 0   0 cm 0 min 0 W/m² 1021.7 hPa
03:06 19.2 °C 12.9 °C 67 % 9 km/h (13 km/h) 0 mm0 mm 25.1 °C 25.4 °C 24.6 °C 23.2 °C 59470 m 0   0 cm 0 min 0 W/m² 1021.7 hPa
03:00 19.3 °C 13 °C 67 % 11 km/h (13 km/h) 0 mm0 mm 25.1 °C 25.5 °C 24.6 °C 23.2 °C 59470 m 0   0 cm 0 min 0 W/m² 1021.8 hPa
02:54 19.4 °C 13.1 °C 67 % 10 km/h (13 km/h) 0 mm0 mm 25.1 °C 25.5 °C 24.6 °C 23.2 °C 60000 m 0   0 cm 0 min 0 W/m² 1021.9 hPa
02:48 19.5 °C 13.2 °C 67 % 10 km/h (13 km/h) 0 mm0 mm 25.1 °C 25.5 °C 24.6 °C 23.2 °C 60000 m 0   0 cm 0 min 0 W/m² 1021.9 hPa
02:42 19.4 °C 13.3 °C 68 % 10 km/h (13 km/h) 0 mm0 mm 25.1 °C 25.5 °C 24.6 °C 23.2 °C 60000 m 0   0 cm 0 min 0 W/m² 1021.9 hPa
02:36 19.2 °C 13.4 °C 69 % 9 km/h (12 km/h) 0 mm0 mm 25.2 °C 25.5 °C 24.6 °C 23.2 °C 60000 m 0   0 cm 0 min 0 W/m² 1022 hPa
02:30 18.6 °C 13.2 °C 71 % 6 km/h (10 km/h) 0 mm0 mm 25.2 °C 25.5 °C 24.6 °C 23.2 °C 60000 m 0   0 cm 0 min 0 W/m² 1022.1 hPa
02:24 18.4 °C 13.7 °C 74 % 4 km/h (7 km/h) 0 mm0 mm 25.2 °C 25.5 °C 24.6 °C 23.2 °C 60000 m 0   0 cm 0 min 0 W/m² 1022.1 hPa
02:18 18.5 °C 13.8 °C 74 % 7 km/h (10 km/h) 0 mm0 mm 25.3 °C 25.6 °C 24.6 °C 23.2 °C 60000 m 0   0 cm 0 min 0 W/m² 1022 hPa
02:12 18.6 °C 13.9 °C 74 % 9 km/h (10 km/h) 0 mm0 mm 25.3 °C 25.6 °C 24.6 °C 23.2 °C 60000 m 0   0 cm 0 min 0 W/m² 1022 hPa
02:06 18.7 °C 14 °C 74 % 6 km/h (9 km/h) 0 mm0 mm 25.3 °C 25.6 °C 24.6 °C 23.2 °C 60000 m 0   0 cm 0 min 0 W/m² 1022 hPa
02:00 18.8 °C 14.1 °C 74 % 6 km/h (8 km/h) 0 mm0 mm 25.3 °C 25.6 °C 24.6 °C 23.2 °C 60000 m 0   0 cm 0 min 0 W/m² 1022.1 hPa
01:54 19 °C 14 °C 73 % 5 km/h (8 km/h) 0 mm0 mm 25.4 °C 25.6 °C 24.6 °C 23.2 °C 60000 m 0   0 cm 0 min 0 W/m² 1022.1 hPa
01:48 19.1 °C 13.9 °C 72 % 5 km/h (8 km/h) 0 mm0 mm 25.4 °C 25.6 °C 24.5 °C 23.2 °C 60000 m 0   0 cm 0 min 0 W/m² 1022.2 hPa
01:42 19.2 °C 14 °C 72 % 7 km/h (10 km/h) 0 mm0 mm 25.5 °C 25.6 °C 24.6 °C 23.2 °C 60000 m 0   0 cm 0 min 0 W/m² 1022.1 hPa
01:36 19.3 °C 13.9 °C 71 % 9 km/h (11 km/h) 0 mm0 mm 25.5 °C 25.6 °C 24.6 °C 23.2 °C 60000 m 0   0 cm 0 min 0 W/m² 1022.1 hPa
01:30 19.4 °C 14 °C 71 % 10 km/h (12 km/h) 0 mm0 mm 25.5 °C 25.7 °C 24.6 °C 23.2 °C 60000 m 0   0 cm 0 min 0 W/m² 1022.1 hPa
01:24 19.6 °C 14 °C 70 % 11 km/h (14 km/h) 0 mm0 mm 25.5 °C 25.7 °C 24.6 °C 23.2 °C 60000 m 0   0 cm 0 min 0 W/m² 1022.1 hPa
01:18 19.8 °C 13.9 °C 69 % 9 km/h (14 km/h) 0 mm0 mm 25.5 °C 25.6 °C 24.5 °C 23.2 °C 60000 m 0   0 cm 0 min 0 W/m² 1022.1 hPa
01:12 20.1 °C 13.8 °C 67 % 7 km/h (10 km/h) 0 mm0 mm 25.6 °C 25.7 °C 24.6 °C 23.2 °C 60000 m 0   0 cm 0 min 0 W/m² 1022 hPa
01:06 20.4 °C 13.8 °C 66 % 7 km/h (10 km/h) 0 mm0 mm 25.6 °C 25.7 °C 24.6 °C 23.2 °C 60000 m 0   0 cm 0 min 0 W/m² 1021.9 hPa
01:00 20.9 °C 13.6 °C 63 % 8 km/h (14 km/h) 0 mm0 mm 25.6 °C 25.7 °C 24.6 °C 23.2 °C 60000 m 0   0 cm 0 min 0 W/m² 1021.9 hPa
00:54 21.6 °C 13.5 °C 60 % 10 km/h (14 km/h) 0 mm0 mm 25.6 °C 25.7 °C 24.6 °C 23.2 °C 60000 m 0   0 cm 0 min 0 W/m² 1021.9 hPa
00:48 21.8 °C 13.4 °C 59 % 10 km/h (14 km/h) 0 mm0 mm 25.6 °C 25.7 °C 24.5 °C 23.2 °C 60000 m 0   0 cm 0 min 0 W/m² 1022 hPa
00:42 22 °C 13.6 °C 59 % 11 km/h (18 km/h) 0 mm0 mm 25.7 °C 25.7 °C 24.6 °C 23.2 °C 60000 m 0   0 cm 0 min 0 W/m² 1021.8 hPa
00:36 22.2 °C 13.5 °C 58 % 13 km/h (18 km/h) 0 mm0 mm 25.7 °C 25.8 °C 24.6 °C 23.2 °C 60000 m 0   0 cm 0 min 0 W/m² 1021.8 hPa
00:30 22.2 °C 13.5 °C 58 % 14 km/h (18 km/h) 0 mm0 mm 25.7 °C 25.8 °C 24.6 °C 23.2 °C 60000 m 0   0 cm 0 min 0 W/m² 1021.9 hPa
00:24 22.2 °C 13.5 °C 58 % 13 km/h (18 km/h) 0 mm0 mm 25.8 °C 25.7 °C 24.6 °C 23.2 °C 60000 m 0   0 cm 0 min 0 W/m² 1021.9 hPa
00:18 22.3 °C 13.6 °C 58 % 13 km/h (17 km/h) 0 mm0 mm 25.8 °C 25.8 °C 24.6 °C 23.2 °C 60000 m 0   0 cm 0 min 0 W/m² 1021.9 hPa
00:12 22.4 °C 13.5 °C 57 % 14 km/h (18 km/h) 0 mm0 mm 25.8 °C 25.8 °C 24.6 °C 23.2 °C 60000 m 0   0 cm 0 min 0 W/m² 1021.9 hPa
00:06 22.5 °C 13.6 °C 57 % 14 km/h (19 km/h) 0 mm0 mm 25.8 °C 25.8 °C 24.6 °C 23.2 °C 60000 m 0   0 cm 0 min 0 W/m² 1021.9 hPa
00:00 22.6 °C 13.6 °C 57 % 15 km/h (19 km/h) 0 mm0 mm 25.8 °C 25.8 °C 24.6 °C 23.2 °C 60000 m 0   0 cm 0 min 0 W/m² 1021.9 hPa

Données via Météo-France

Relevés météo à Toulouse-Blagnac

Cette page rassemble les observations de la station de Toulouse-Blagnac : température, humidité, vent, précipitations et pression atmosphérique. Les graphiques facilitent le suivi de la journée, tandis que le tableau donne accès aux mesures horaires et infra-horaires disponibles.

Pour replacer ces mesures dans leur contexte, consultez la climatologie de Toulouse-Blagnac ainsi que ses normales et records. Retrouvez aussi la carte des observations météo en temps réel.